Flag for Portugal Weather past 2 weeks in Ponta Delgada, Azores, Portugal

Now
59 °F

Partly cloudy.


Feels Like: 57 °F
Forecast: 55 / 64 °F
Wind: 12 mph from Southeast

Location: Ponta Delgada / Nordela Acores

Current Time: Apr 1, 2015 at 3:43:42 AM

Latest Report: Apr 1, 2015 at 3:00 AM


Visibility: N/A

Pressure: 30.45 "Hg

Humidity: 77%

Dew point: 52 °F

Location of Ponta DelgadaLocation

Historic Weather in Ponta Delgada — Graph

°F

Ponta Delgada temperature yesterday

Maximum temperature yesterday: 63 °F (at 3:30 PM)
Minimum temperature yesterday: 57 °F (at 12:00 AM)
Average temperature yesterday: 59 °F

Past Weeks' High & Low Weather Summary

 TemperatureHumidityPressure
High64 °F (Mar 28, 1:30 PM)94% (Mar 28, 1:00 AM)30.63 "Hg (Mar 28, 1:00 AM)
Low45 °F (Mar 18, 4:30 AM)51% (Mar 17, 12:30 PM)30.24 "Hg (Mar 21, 3:30 PM)
Average57 °F73%30.41 "Hg
* Reported Mar 17 1:00 AM — Apr 1 2:30 AM, Ponta Delgada, Weather by CustomWeather, © 2015

Note: Actual official high and low records may vary slightly from our data, if they occured in-between our weather recording intervals... More about our weather records

Advertising

Ponta Delgada weather history for previous 24 hours

 ConditionsComfort  
Time TempWeatherWind HumidityBarometerVisibility
2:30 AM
Wed, Apr 1
59 °FPassing clouds.14 mph82%30.45 "HgN/A
2:00 AM59 °FPassing clouds.13 mph82%30.48 "HgN/A
1:30 AM59 °FPassing clouds.13 mph82%30.48 "HgN/A
1:00 AM59 °FPassing clouds.12 mph82%30.48 "HgN/A
12:30 AM59 °FPassing clouds.13 mph82%30.48 "HgN/A
12:00 AM59 °FPassing clouds.13 mph77%30.48 "HgN/A
11:30 PM
Tue, Mar 31
59 °FPassing clouds.13 mph77%30.48 "HgN/A
11:00 PM59 °FPassing clouds.16 mph77%30.48 "HgN/A
10:30 PM59 °FPartly cloudy.15 mph77%30.48 "HgN/A
10:00 PM59 °FPassing clouds.15 mph77%30.48 "HgN/A
9:30 PM59 °FPassing clouds.17 mph77%30.48 "HgN/A
9:00 PM59 °FBroken clouds.14 mph77%30.45 "HgN/A
8:30 PM59 °FScattered clouds.15 mph77%30.45 "HgN/A
8:00 PM59 °FScattered clouds.15 mph77%30.45 "HgN/A
7:30 PM59 °FBroken clouds.15 mph77%30.45 "HgN/A
7:00 PM61 °FBroken clouds.15 mph72%30.42 "HgN/A
6:30 PM61 °FBroken clouds.14 mph77%30.42 "HgN/A
6:00 PM61 °FBroken clouds.17 mph77%30.42 "HgN/A
5:30 PM59 °FBroken clouds.17 mph82%30.42 "HgN/A
5:00 PM61 °FScattered clouds.15 mph77%30.42 "HgN/A
4:30 PM63 °FBroken clouds.16 mph77%30.45 "HgN/A
4:00 PM63 °FBroken clouds.16 mph77%30.45 "HgN/A
3:30 PM63 °FPartly sunny.15 mph73%30.45 "HgN/A
3:00 PM61 °FPartly sunny.14 mph83%30.45 "HgN/A
2:30 PM59 °FPartly sunny.15 mph88%30.48 "HgN/A
2:00 PM61 °FPartly sunny.13 mph77%30.48 "HgN/A
1:30 PM61 °FPartly sunny.14 mph77%30.48 "HgN/A
1:00 PM59 °FPartly sunny.14 mph82%30.48 "HgN/A
12:30 PM59 °FPartly sunny.15 mph82%30.48 "HgN/A
12:00 PM61 °FPartly sunny.15 mph77%30.48 "HgN/A
11:30 AM59 °FPartly sunny.15 mph82%30.51 "HgN/A
11:00 AM59 °FPartly sunny.16 mph77%30.51 "HgN/A
10:48 AM59 °FPartly sunny.14 mph82%30.51 "HgN/A
10:30 AM59 °FPartly sunny.16 mph77%30.51 "HgN/A
10:00 AM59 °FPartly sunny.13 mph82%30.48 "HgN/A
9:30 AM59 °FPartly sunny.14 mph77%30.48 "HgN/A
9:00 AM59 °FPartly sunny.14 mph82%30.51 "HgN/A
8:30 AM57 °FPartly sunny.15 mph88%30.51 "HgN/A
8:00 AM59 °FPassing clouds.17 mph77%30.48 "HgN/A
7:30 AM57 °FPassing clouds.15 mph88%30.48 "HgN/A
7:00 AM57 °FPassing clouds.14 mph88%30.45 "HgN/A
6:30 AM57 °FPassing clouds.15 mph88%30.45 "HgN/A
6:00 AM57 °FPassing clouds.14 mph88%30.45 "HgN/A
5:30 AM57 °FPassing clouds.14 mph94%30.48 "HgN/A
5:00 AM57 °FPassing clouds.15 mph88%30.48 "HgN/A
4:30 AM57 °FPassing clouds.15 mph88%30.48 "HgN/A
4:00 AM57 °FPassing clouds.16 mph88%30.48 "HgN/A
3:30 AM57 °FPassing clouds.16 mph88%30.48 "HgN/A
3:00 AM57 °FPassing clouds.15 mph88%30.48 "HgN/A
Weather by CustomWeather, © 2015

See weather overviewHow to use our weather pages